Theta_e
359 359 357 356 356 357 357 358 357 357 359 358 357 359 360 364 366 366 366 366 367 366 367 367 367 366 365 365 364 362 361 360 359 358 357 354 352 350 349 349 350 348
358 359 358 358 358 358 359 359 359 358 359 360 360 361 363 365 365 365 365 365 366 366 367 366 367 366 365 364 363 361 360 359 359 357 356 354 353 352 349 351 350 349
358 358 357 357 356 357 355 358 359 359 359 359 361 362 362 363 363 364 365 365 365 364 366 366 366 366 365 364 363 361 359 359 357 355 355 354 353 352 352 348 349 350
357 358 357 356 356 357 357 358 359 359 359 359 359 360 360 361 362 363 364 364 364 365 365 365 365 365 365 364 362 360 360 359 358 357 354 354 354 353 352 351 349 349
357 357 357 357 357 359 359 358 356 357 357 358 359 361 361 362 362 361 362 363 364 364 365 365 365 364 364 363 362 359 359 357 357 356 354 353 354 352 351 351 349 347
357 358 358 357 358 359 357 357 357 357 357 356 359 360 360 361 361 360 361 361 362 361 362 364 364 363 363 362 360 359 357 356 355 354 352 352 352 351 349 350 349 347
356 357 357 357 357 358 358 357 358 358 358 358 360 359 360 360 360 361 362 361 361 362 362 363 364 362 362 362 360 358 358 357 355 353 351 351 352 351 349 349 348 347
355 356 356 356 356 356 357 357 358 358 359 360 359 360 361 359 361 361 362 362 361 362 363 364 364 364 361 360 359 357 357 355 354 352 351 351 351 350 349 347 348 347
355 356 356 356 355 355 355 355 357 359 359 359 358 357 361 360 360 361 362 363 362 362 364 363 364 363 361 359 358 358 356 354 353 352 351 350 349 349 349 348 347 347
356 356 355 354 354 354 355 355 355 357 359 358 357 357 358 360 361 361 362 363 361 362 363 363 363 362 361 359 358 358 357 355 353 352 351 350 349 349 349 348 347 346
354 355 354 354 354 354 354 355 355 356 358 357 357 357 359 360 361 362 362 362 360 361 362 362 362 362 360 358 358 358 357 355 354 353 351 351 350 350 347 349 347 346
354 354 354 354 354 355 355 355 355 356 357 357 357 357 358 359 360 361 361 361 362 362 362 362 362 362 361 359 357 357 356 356 355 353 351 351 350 350 350 349 348 347
353 354 355 355 356 356 357 357 356 356 356 357 357 357 357 358 359 360 361 361 362 362 361 362 362 361 361 360 358 357 356 355 354 353 351 351 350 350 349 349 348 348
354 356 357 357 357 358 358 358 357 358 358 359 359 358 357 358 358 359 360 361 361 361 361 362 362 361 361 360 358 357 356 355 354 352 351 350 350 350 349 348 347 347
357 357 358 359 358 359 359 359 359 359 359 360 360 359 358 358 359 359 359 359 360 360 360 361 360 359 360 359 357 356 356 354 353 352 351 350 349 349 349 348 348 347
359 359 360 360 359 359 360 360 359 360 360 360 360 359 359 359 360 359 358 358 358 358 359 358 358 359 346 333 338 355 355 354 353 352 352 350 349 348 347 347 346 345
359 358 359 358 359 359 360 360 360 360 360 360 360 360 359 360 359 358 357 357 357 357 357 357 356 355 333 329 331 334 350 354 352 351 351 350 349 349 347 347 346 346
357 358 358 358 359 359 359 360 360 359 359 360 359 359 359 359 358 358 359 358 357 357 356 356 356 338 328 327 329 329 334 353 353 351 350 349 349 348 348 348 346 344
359 358 358 359 359 359 359 359 359 359 359 359 358 359 359 358 359 358 358 357 357 355 355 355 356 335 327 325 327 327 328 339 353 352 350 349 348 349 349 348 347 344
358 357 357 358 359 359 360 359 359 358 358 359 359 359 358 357 357 358 358 357 356 355 355 356 356 331 325 323 324 325 326 332 354 353 351 350 349 349 349 348 347 345
358 358 357 358 359 359 359 359 358 359 358 359 358 357 357 356 356 357 356 357 356 356 355 354 355 326 323 321 321 321 323 327 352 353 352 351 350 350 349 348 348 346
357 358 358 359 358 359 358 358 358 359 358 359 359 358 358 358 357 357 357 357 356 356 354 353 354 323 322 320 320 319 321 338 349 352 351 350 350 350 350 350 349 347
357 357 358 358 358 358 358 357 358 359 360 360 358 358 356 356 355 355 357 357 356 356 354 353 355 330 320 318 318 317 323 342 347 351 351 350 350 351 350 350 349 348
358 358 358 357 358 357 357 358 358 359 359 360 358 357 355 356 356 356 357 357 355 355 355 354 355 333 316 316 316 315 325 343 347 349 350 350 350 351 351 350 348 341
359 359 358 358 358 358 358 358 358 359 359 360 358 358 357 358 357 356 356 356 356 356 342 350 355 336 314 316 315 313 328 346 347 349 348 349 349 349 350 348 348 340
358 358 359 358 358 358 359 358 360 359 359 358 358 358 358 357 356 355 355 356 356 356 356 354 354 351 326 314 313 313 319 346 350 348 347 348 348 347 346 346 346 345
Wind_Speed
14 13 13 13 13 11 11 12 11 11 10 10 10 10 10 9 9 10 10 9 10 10 9 9 8 8 7 7 7 6 6 7 7 6 7 7 7 8 7 7 6 5
16 14 12 12 11 10 11 11 11 12 11 11 10 9 9 8 10 10 10 10 10 10 10 9 9 9 9 8 8 7 6 6 7 5 7 8 7 7 8 8 7 6
16 15 15 16 14 15 15 12 11 11 11 12 11 10 9 9 10 10 10 11 10 10 10 10 10 10 9 9 8 8 7 7 8 7 7 8 7 7 7 7 6 7
17 17 16 17 15 14 14 12 12 11 11 11 12 10 10 9 10 11 11 11 10 10 10 11 11 10 10 10 9 8 8 8 8 7 7 6 7 7 7 6 6 6
18 17 16 15 14 13 13 13 15 13 14 13 11 11 10 10 10 11 11 11 11 11 10 11 11 10 10 9 9 8 8 8 8 8 7 7 6 6 6 6 6 7
16 16 15 15 15 14 14 15 15 14 14 14 13 11 11 12 11 12 12 12 12 12 12 11 11 11 10 10 9 9 8 8 8 9 9 8 7 7 6 6 7 8
18 17 18 16 16 16 16 15 15 14 14 14 11 12 12 12 12 13 13 13 13 12 13 12 11 11 10 9 9 9 9 9 9 10 10 8 8 8 7 7 8 8
20 18 18 17 18 17 17 16 15 14 14 12 14 13 12 13 14 13 12 13 13 13 13 12 12 12 11 10 10 10 10 8 9 10 10 10 8 9 9 7 7 8
19 18 18 19 20 18 19 18 16 15 14 14 14 13 13 13 14 14 13 13 14 13 13 12 12 12 11 11 11 12 12 11 10 11 11 11 10 10 10 8 8 8
18 18 20 20 20 18 19 19 17 16 15 15 15 14 14 14 14 14 13 13 14 13 13 13 13 12 11 12 12 13 12 12 11 11 11 11 11 11 10 9 10 10
21 20 20 21 21 18 20 20 19 17 15 17 16 16 15 14 13 13 13 14 14 14 14 14 13 13 13 13 12 12 13 12 12 12 12 12 12 11 11 10 11 11
21 21 22 22 21 20 21 20 19 18 17 16 17 18 16 15 14 13 13 14 14 14 14 14 13 13 14 14 14 13 13 12 12 12 12 12 12 11 11 11 11 11
21 21 20 20 20 19 18 18 19 19 19 18 17 18 17 16 15 15 13 14 15 14 14 14 14 14 13 13 13 13 13 13 13 12 12 11 12 12 12 12 12 11
21 19 19 19 18 18 18 18 18 18 18 16 16 18 18 17 17 16 14 13 14 14 14 13 14 13 13 13 13 13 13 13 13 12 13 12 12 12 12 12 12 12
17 16 16 16 17 17 17 17 17 17 16 16 15 16 15 17 17 16 16 15 15 15 15 14 14 14 12 13 13 14 13 13 14 13 13 12 12 13 12 12 11 11
15 14 15 16 16 17 17 17 16 16 16 16 16 16 15 15 16 16 17 16 16 18 16 16 14 12 15 19 16 13 14 12 12 12 13 12 12 12 12 12 12 11
14 15 14 16 17 16 16 17 17 16 16 16 16 16 17 15 15 17 17 16 17 16 19 17 16 15 18 18 20 20 14 13 13 12 12 12 12 12 12 12 11 11
16 16 16 17 17 17 16 16 16 17 17 17 17 18 17 16 17 17 16 16 15 17 18 16 18 17 19 20 21 22 18 13 12 12 12 12 12 13 12 11 11 10
15 16 17 16 17 17 16 16 17 17 17 17 19 17 17 20 19 17 17 17 18 21 21 20 18 17 19 22 23 23 22 17 11 12 12 12 13 13 13 11 10 10
16 17 18 17 16 16 16 17 17 19 18 17 16 17 19 20 21 20 17 20 21 21 21 19 20 17 22 23 24 24 22 18 11 12 12 13 14 13 12 12 12 12
16 17 17 17 17 17 17 18 19 18 18 17 16 18 19 20 21 21 20 22 22 21 19 19 17 17 23 24 24 23 21 19 12 11 11 12 12 13 13 13 13 12
17 17 16 15 16 16 17 18 18 17 18 16 15 16 16 17 20 19 20 21 21 22 20 20 19 20 23 24 24 22 21 14 14 12 12 12 12 13 12 12 12 13
17 16 16 16 16 16 17 18 18 17 16 15 17 16 16 19 21 21 20 18 21 21 21 20 19 18 23 23 21 21 17 13 14 12 12 13 13 13 12 12 12 13
16 17 16 16 16 18 19 18 17 15 17 15 17 17 17 18 18 18 18 19 22 22 23 21 19 15 22 21 23 24 21 15 13 13 13 12 12 12 10 11 13 18
15 15 16 17 17 18 17 17 17 16 15 13 15 15 16 16 15 16 19 19 19 21 20 22 19 14 23 22 24 25 21 14 14 13 14 14 12 11 11 10 10 14
14 15 16 17 18 17 16 16 13 13 14 15 15 14 15 15 15 18 20 19 19 21 16 19 21 14 19 24 26 26 27 16 13 14 16 15 14 13 12 11 11 10
Wind_Direction
199 199 202 203 207 206 203 200 203 203 203 203 205 206 205 203 194 194 199 198 198 200 197 197 196 200 200 197 195 198 198 203 211 199 199 196 202 208 211 213 208 215
202 200 200 202 204 201 202 200 198 200 202 202 206 205 203 194 193 197 199 201 198 202 198 196 197 200 199 198 191 195 197 202 210 200 197 196 203 204 216 217 217 211
200 201 200 202 206 206 206 204 202 202 205 205 203 205 202 197 200 199 202 201 202 204 200 198 197 198 199 197 188 193 197 199 209 206 197 201 203 201 214 216 213 206
202 203 204 208 209 206 200 198 199 202 206 205 205 204 202 200 199 200 203 200 202 201 202 199 199 197 197 196 190 197 197 200 208 201 197 201 202 202 205 206 212 208
200 202 204 205 206 202 195 198 203 203 205 207 203 201 197 196 196 203 203 201 202 202 200 199 196 197 191 193 191 198 196 202 202 197 201 202 197 195 204 199 204 211
200 201 200 202 201 198 198 203 203 203 203 205 202 200 201 198 202 205 203 203 203 205 204 201 198 198 193 192 190 198 197 204 200 194 203 206 201 196 200 195 202 211
196 197 201 201 203 202 203 205 203 202 202 204 197 201 198 199 202 205 204 204 205 204 204 199 196 196 190 188 191 194 198 200 196 192 201 205 200 196 199 194 202 209
199 200 201 203 204 205 205 204 203 201 200 195 201 200 197 201 203 206 204 202 204 202 200 198 194 192 188 187 191 195 199 197 200 194 199 205 199 201 195 195 196 206
198 201 199 200 203 205 206 206 205 203 199 200 203 205 201 204 205 206 204 200 202 202 197 198 196 194 191 188 191 193 197 200 201 197 199 201 201 203 198 191 197 205
197 200 200 202 205 207 208 208 207 204 200 202 203 205 203 203 206 205 202 199 201 201 198 197 196 196 193 192 191 192 197 199 199 200 201 203 203 202 197 192 201 204
200 199 202 204 206 206 208 207 208 207 204 203 203 207 206 201 203 204 203 201 203 202 199 198 197 196 195 196 195 195 198 201 200 199 201 202 204 202 198 195 200 208
199 201 204 205 204 206 206 206 206 206 203 201 202 206 205 204 201 201 203 204 204 202 200 198 196 196 197 197 196 196 199 204 201 200 202 202 204 204 200 200 204 206
197 199 200 202 201 202 202 203 204 205 204 203 201 205 203 203 204 204 203 203 203 201 201 198 197 197 198 197 196 195 197 201 203 202 204 204 206 206 206 205 207 204
197 195 196 198 198 197 199 201 202 202 204 203 201 202 205 205 205 204 203 201 201 201 202 198 198 199 199 196 195 194 196 199 200 202 205 205 205 207 209 209 206 206
189 191 192 190 190 193 195 198 199 199 200 201 200 201 203 206 206 205 204 204 203 201 201 203 201 203 200 196 194 196 199 198 199 202 202 202 204 207 208 208 206 204
181 185 188 186 190 195 195 195 196 198 198 198 199 198 200 202 206 207 207 204 202 208 206 212 209 206 201 193 192 194 197 198 198 201 201 201 200 205 207 206 205 202
184 195 192 194 197 197 197 197 198 198 201 202 204 202 203 201 202 207 208 206 205 203 208 212 214 215 194 188 194 200 198 194 192 195 198 200 200 200 205 203 203 199
189 190 193 197 195 197 196 196 198 201 203 203 203 207 205 203 206 206 206 208 208 211 210 208 215 207 183 186 193 200 203 199 195 195 196 200 202 204 206 203 197 191
185 190 195 195 196 195 194 195 198 202 205 204 206 203 204 210 208 205 209 211 213 218 220 218 218 190 180 184 193 200 202 203 200 194 192 198 202 204 205 201 189 187
187 192 196 198 193 191 192 194 198 204 206 205 205 206 209 212 212 209 207 214 217 218 219 215 221 182 180 183 193 198 198 199 207 194 197 200 203 203 205 202 191 188
191 194 197 195 192 191 192 197 200 204 204 203 205 209 212 214 215 213 215 218 218 217 218 219 222 176 179 184 192 194 191 195 209 203 202 204 206 207 205 200 195 193
194 196 196 193 192 193 197 200 203 202 203 201 204 210 212 217 220 217 215 215 217 219 220 221 220 176 183 184 188 188 181 192 206 205 203 206 206 209 203 200 199 194
195 195 194 193 194 196 200 203 203 204 206 205 211 209 208 213 221 220 221 219 220 219 219 220 223 183 183 183 181 179 175 195 202 205 208 210 210 207 204 202 200 194
189 190 192 192 195 200 202 202 202 203 203 198 205 207 210 214 219 223 224 222 222 223 220 218 219 179 181 176 177 177 181 192 196 203 210 212 213 206 201 204 207 197
185 189 192 193 199 203 202 204 204 204 204 202 209 212 214 218 216 220 224 224 225 224 216 212 219 184 180 174 178 177 183 192 192 202 208 212 210 205 202 206 206 198
194 194 195 197 201 202 202 206 202 201 204 204 208 213 215 217 218 222 223 223 222 223 215 212 215 200 177 177 177 179 185 190 188 199 209 209 209 205 200 204 202 198